Simultaneous Nadir Overpasses (SNOs) Predictions

Prediction of SNOs between AQUA and METOP-B Satellite Orbit:

Table of predicted SNOs for the next 14.0 days since TLE Epoch: 8/11/2017
Index Date (AQUA) Time (AQUA) Lat,Lon (AQUA) SZA (AQUA ) Date (METOP-B) Time (METOP-B) Lat,Lon (METOP-B) SZA (METOP-B ) Distance(km) Time Diff (sec)
1 08/14/2017 01:23:50 73.79, 153.30 59.49 08/14/2017 01:22:40 73.77, 153.35 59.48 2.44 70
2 08/14/2017 02:13:17 -73.85, -39.18 120.44 08/14/2017 02:13:21 -73.83, -39.20 120.46 2.39 4
3 08/14/2017 03:02:46 73.94, 128.24 59.68 08/14/2017 03:03:58 73.95, 128.43 59.66 5.73 72
4 08/16/2017 20:58:04 73.79,-140.27 60.37 08/16/2017 20:56:59 73.78,-140.24 60.36 2.25 65
5 08/16/2017 21:47:31 -73.85, 27.25 119.56 08/16/2017 21:47:40 -73.83, 27.22 119.58 1.93 9
6 08/16/2017 22:37:03 74.10,-165.68 60.72 08/16/2017 22:38:14 74.10,-164.80 60.68 27.01 71
7 08/19/2017 16:32:19 73.80, -73.85 61.28 08/19/2017 16:31:19 73.78, -73.83 61.27 2.90 60
8 08/19/2017 17:21:46 -73.86, 93.67 118.65 08/19/2017 17:22:00 -73.84, 93.65 118.67 2.10 14
9 08/19/2017 18:11:22 74.32, -99.74 61.86 08/19/2017 18:12:30 74.30, -97.89 61.77 55.87 68
10 08/22/2017 12:06:33 73.76, -7.33 62.17 08/22/2017 12:05:39 73.78, -7.41 62.20 3.11 54
11 08/22/2017 12:56:01 -73.87, 160.08 117.70 08/22/2017 12:56:20 -73.84, 160.07 117.73 3.05 19
12 08/22/2017 13:45:40 74.48, -33.71 62.97 08/22/2017 13:46:46 74.49, -30.97 62.89 81.34 66
13 08/25/2017 07:40:47 73.78, 59.07 63.15 08/25/2017 07:39:58 73.78, 58.99 63.15 2.50 49
14 08/25/2017 08:30:14 -73.84,-133.41 116.78 08/25/2017 08:30:39 -73.85,-133.52 116.77 3.44 25




NCC Satellite Simultaneous Nadir Overpasses (SNOs) Prediction Service
